Bradenton, FL (34205)

4:06 PM EDT on March 27, 2015 (GMT -0400)
Cleveland's in Sandpointe | | Change Station
CLOSE
Current Station
Personal Weather Station
Location: Bradenton, FL
Elevation: 28 ft
Nearby Weather Stations
Active Advisory: Beach Hazard Statement

Elev 28 ft 27.48 °N, 82.60 °W | Updated 30 seconds ago

Thunderstorm
Thunderstorm
70.8 °F
Feels Like 70.8 °F
N
6.0
Wind Variable Wind from SSW
Gusts 12.0 mph

Today
High -- | Low -- °F
--% Chance of Precip.
Yesterday
High -- | Low -- °F
Precip. -- in
7:26 AM 7:45 PM
First Quarter, 55% visible
Pressure 29.86 in
Visibility 0.8 miles
Clouds Scattered Clouds 1300 ft
Mostly Cloudy 4600 ft
Overcast 10000 ft
Dew Point 67 °F
Humidity 88%
Rainfall 0.81 in
Snow Depth Not available.
UV 3 out of 12
Pollen 5.00 out of 12
Air Quality Not available.
Flu Activity Not available.
SPECI KSRQ 272002Z 26010G28KT 3/4SM +TSRA BR SCT013 BKN046 OVC100 21/19 A2986 RMK AO2 PK WND 26028/1958 LTG DSNT NE TSB1955 P0028 T02110194

More Conditions Fewer Conditions

Pressure 29.86 in
Visibility 0.8 miles
Clouds Scattered Clouds 1300 ft
Mostly Cloudy 4600 ft
Overcast 10000 ft
Dew Point 67 °F
Humidity 88%
Rainfall 0.81 in
Snow Depth Not available.
UV 3 out of 12
Pollen 5.00 out of 12
Air Quality Not available.
Flu Activity Not available.
SPECI KSRQ 272002Z 26010G28KT 3/4SM +TSRA BR SCT013 BKN046 OVC100 21/19 A2986 RMK AO2 PK WND 26028/1958 LTG DSNT NE TSB1955 P0028 T02110194

More Conditions Fewer Conditions

10-Day Weather Forecast

Almanac

Astronomy

Mar. 27, 2015 Rise Set
Actual Time
Civil Twilight
Nautical Twilight
Astronomical Twilight
Moon
Length of Visible Light
Length of Day
Tomorrow will be .
, % of the Moon is Illuminated

Today's Extremes

State Highs State Lows

Community

WunderPhotos

Upload Photos

1,808,802 photos uploaded!

WunderBlogs® & News

Nearby

Air Quality

  Air Quality AQ Index Pollutant
Not available.

Snow Depth

Station Depth Elevation

Earthquake Activity

City Distance Mag. Time & Date
Minimum magnitude displayed is 2.5.

Coastal Water Temperatures

Place Temperature

Stations

Nearby Weather Stations

Station Location Temp. Windchill Dew Point Humidity Wind Precip. Elev Updated Type
                   
Beach Hazard Statement
Statement as of 5:14 AM EDT on March 27, 2015

... Beach hazards statement in effect from noon EDT today through
this evening...

The National Weather Service in Tampa Bay Ruskin has issued a
beach hazards statement for a moderate risk of rip currents which
is in effect from noon EDT today through this evening.

* Hazards... moderate risk of rip currents.

* Timing... from noon through this evening.

* Location... area beaches from Pinellas to Lee counties.

Precautionary/preparedness actions...

A moderate risk of rip currents means wind and or wave conditions
support stronger or more frequent rip currents. Always have a
flotation device with you in the water.



Http://www.Weather.Gov/Tampa